Regional Weather Roundup
Issued by NWS New Orleans/Baton Rouge, LA

Home | Current Version | Previous Version | Graphics & Text | Print | Product List | Glossary On
Versions: 1 2 3 4 5 6 7 8 9 10 11 12 13 14 15 16 17 18 19 20 21 22 23 24 25 26 27 28 29 30 31 32 33 34 35 36 37 38 39 40 41 42 43 44 45 46 47 48 49 50
466
ASUS44 KLIX 311510
RWRLIX
NEW ORLEANS REGIONAL WEATHER ROUNDUP
NATIONAL WEATHER SERVICE NEW ORLEANS LA
1000 AM CDT THU JUL 31 2014

NOTE: "FAIR" INDICATES FEW OR NO CLOUDS BELOW 12,000 FEET WITH NO
      SIGNIFICANT WEATHER AND/OR OBSTRUCTIONS TO VISIBILITY.
      SKY/WX - SKY CONDITION AND SIGNIFICANT WEATHER.
      TMP - AIR TEMPERATURE.     DP    - DEWPOINT TEMPERATURE.
      RH  - RELATIVE HUMIDITY.   PRES  - PRESSURE.
      HI  - HEAT INDEX.          WCI   - WIND CHILL INDEX.

*  THESE STATIONS ARE NOT NWS OR FAA STATIONS AND ARE NOT UNDER
   NWS QUALITY CONTROL.

LAZ038-040-048-061>063-065>067-069-311600-
SOUTHEAST LOUISIANA

CITY           SKY/WX    TMP DP  RH WIND       PRES   REMARKS
N.O. AUDUBON     N/A     87  66  48 MISG        N/A
N.O. INTL ARPT PTSUNNY   86  67  52 NE8       30.04S
N.O. LAKEFRONT PTSUNNY   81  65  58 E9        30.05S
N.O. DOWNTOWN* PTSUNNY   81  63  54 NE5       30.05S
SLIDELL        PTSUNNY   80  65  59 NE6       30.05S
BATON ROUGE    PTSUNNY   76  65  68 NE8       30.06R
BOOTHVILLE     MOSUNNY   83  66  56 VRB5      30.05S
BELLE CHASSE   PTSUNNY   84  67  56 N5        30.04S
BOGALUSA*      PTSUNNY   77  65  65 NE3       30.08S
GALLIANO*      NOT AVBL
NEW ROADS*       N/A     80  64  58 E7        30.05S
GONZALES*        N/A     80  71  74 NE3       30.04S
HAMMOND*       PTSUNNY   79  63  57 NE3       30.07S
HOUMA*         MOSUNNY   84  64  51 E3        30.04S
PORT FOURCHON* PTSUNNY   82  63  51 E7        30.05R

$$

MSZ070-080>082-311600-
SOUTHERN MISSISSIPPI

CITY           SKY/WX    TMP DP  RH WIND       PRES   REMARKS
MCCOMB         CLOUDY    74  62  66 NE3       30.08S
GULFPORT       MOSUNNY   85  61  44 CALM      30.05S
BILOXI         MOSUNNY   81  63  53 NE5       30.05S
PASCAGOULA     MOSUNNY   81  65  58 NE3       30.05S
STENNIS ARPT*  MOSUNNY  N/A N/A N/A CALM      30.06S

$$

COASTAL OBSERVATIONS
LAKE AND NEARSHORE STATIONS

STATION/POSITION TIME  TEMP    WIND        PRES    WAVE
                       AIR SEA DIR/SP/G            HT/PER
                 (UTC) (F)     (DEG/KT/KT) (MB)    (FT/S)
PASCAGOULA       1500   80     350/  4/  6 1017.1
WAVELAND YACHT   1500   79      40/  5/  6 1017.0
GRAND ISLE       1500   83 86  100/  5/  6 1017.8
SOUTHWEST PASS   1500   85 85   70/  5/  6 1017.6
NEW CANAL        1500   80 82   60/  9/ 10 1017.6
SHELL BEACH      1500   80 80   50/  5/  7 1017.2

OFFSHORE STATIONS

STATION/POSITION TIME  TEMP    WIND        PRES    WAVE
                       AIR SEA DIR/SP/G            HT/PER
                 (UTC) (F)     (DEG/KT/KT) (MB)    (FT/S)
64 S DAUPHIN ISL 1447   82 85   40/  6/  8 1017.1

$$




USA.gov is the U.S. government's official web portal to all federal, state and local government web resources and services.